"Pseudo-MPEC" for P115ZDu

Created 2020 Sep 19 4:07:23 UT using Find_Orb

Click here for an explanation of pseudo-MPECs

 
 Astrometry: 
     P115ZDu  C2020 09 14Ou[0'uDj,+N9Astrometry0goL9:Ccd9J)*6H4Iw0_ak4`[:l@C,F51
     P115ZDu  C2020 09 14QwMFI@`m)$`S-jD/%Gredacted;`i,GZu-oclicki62`g03g3S'ZF51
     P115ZDu  C2020 09 14]+@jl14!j\aYBb9qpbaJRs0?]C`qvAQ3L$r]lsM(4`Kwyvm;]qn1F51
     P115ZDu  C2020 09 14'gnJ(?IqhPwFHZ8vau0Gav.;Z%ck,Q90YY1\*S2'y5;kefO#f7WcF51
     P115ZDu  C2020 09 16ELw%6h1g'B`-\D:IK98f^#BK,EkC.CO+?M3,//`opvn0E?#],b:(F51
     P115ZDu  C2020 09 16gGNXD*gAYLCR18/@xXkuLUtFhereY2,A4bMb@LGaGZ4k3hKQvJcgF51
     P115ZDu  C2020 09 16yjCM6V_BQ@09GMYstuATcfgQBm\qE`p5]w%9]!j#2]$_xYksgT_/F51
     P115ZDu  C2020 09 16_'AysA_forC0v@65W7Yexplanation4I9b37u$d=3#Lr^Nn]!5wDF51

Station data:
(F51) Pan-STARRS 1, Haleakala  (N20.707235 W156.255910)  US/Hawaii.
   Observers N. Primak, A. Schultz, S. Watters, J. Thiel, T. Goggia. Measurer
   PS1 Science Consortium. 1.8-m Ritchey-Chrétien + CCD.

Orbital elements:  P115ZDu
   Perihelion 2020 Oct 11.234462 +/- 53.3 TT =  5:37:37 (JD 2459133.734462)
Epoch 2020 Sep 16.0 TT = JDT 2459108.5   Earth MOID: 0.5438   AutoNEOCP
M 353.08194971 +/- 8                (J2000 ecliptic)
n   0.27415089 +/- 0.105            Peri.  277.14010 +/- 59
a   2.34680105 +/- 0.599            Node    94.41995 +/- 22
e   0.3554083 +/- 0.149             Incl.    8.55680 +/- 1.5
P   3.60                   H 21.4   G  0.15   U 11.2  SR
q 1.51272846 +/- 0.198    Q 3.18087364 +/- 3.45
From 8 observations 2020 Sept. 14-16; mean residual 0".08
Residuals in arcseconds: 
200914 F51  .05-  .05+    200914 F51  .08+  .08-    200916 F51  .09+  .03+    
200914 F51  .06-  .03+    200916 F51  .22-  .00     200916 F51  .14+  .04+    
200914 F51  .03+  .00     200916 F51  .01-  .06-    

Ephemerides (geocentric):
Date (UTC) HH   RA              Dec         delta   r     elong  mag " sig PA
---- -- -- --  -------------   -----------  ------ ------ -----  --- ---- ---
2020 09 19 04  00 43 59.922   -21 36 14.66  .55174 1.5238 155.5 21.9 46.2  95
2020 09 19 05  00 43 59.308   -21 36 29.45  .55169 1.5238 155.5 21.9 47.3  95
2020 09 19 06  00 43 58.693   -21 36 44.19  .55165 1.5238 155.5 21.9 48.4  95
2020 09 19 07  00 43 58.074   -21 36 58.89  .55160 1.5237 155.5 21.9 49.6  95
2020 09 19 08  00 43 57.454   -21 37 13.55  .55156 1.5237 155.5 21.9 50.7  95
2020 09 19 09  00 43 56.830   -21 37 28.17  .55151 1.5236 155.5 21.9 51.8  95
2020 09 19 10  00 43 56.205   -21 37 42.74  .55147 1.5236 155.5 21.9 53.0  95
2020 09 19 11  00 43 55.576   -21 37 57.26  .55142 1.5236 155.5 21.9 54.1  95
2020 09 19 12  00 43 54.946   -21 38 11.75  .55138 1.5235 155.5 21.9 55.3  95
2020 09 19 13  00 43 54.313   -21 38 26.18  .55133 1.5235 155.5 21.9 56.5  96
2020 09 19 14  00 43 53.677   -21 38 40.58  .55129 1.5234 155.5 21.9 57.7  96
2020 09 19 15  00 43 53.039   -21 38 54.93  .55125 1.5234 155.5 21.9 58.9  96
2020 09 19 16  00 43 52.398   -21 39 09.23  .55120 1.5233 155.5 21.9 60.1  96
2020 09 19 17  00 43 51.755   -21 39 23.49  .55116 1.5233 155.5 21.9 61.3  96
2020 09 19 18  00 43 51.110   -21 39 37.71  .55112 1.5233 155.6 21.9 62.6  96
2020 09 19 19  00 43 50.462   -21 39 51.88  .55108 1.5232 155.6 21.9 63.8  96
2020 09 19 20  00 43 49.812   -21 40 06.01  .55103 1.5232 155.6 21.9 65.1  96
2020 09 19 21  00 43 49.159   -21 40 20.09  .55099 1.5231 155.6 21.9 66.4  96
2020 09 19 22  00 43 48.504   -21 40 34.13  .55095 1.5231 155.6 21.9 67.7  96
2020 09 19 23  00 43 47.847   -21 40 48.12  .55091 1.5231 155.6 21.9 69.0  96
2020 09 20 00  00 43 47.187   -21 41 02.07  .55087 1.5230 155.6 21.9 70.3  96
2020 09 20 01  00 43 46.525   -21 41 15.97  .55083 1.5230 155.6 21.9 71.6  96
2020 09 20 02  00 43 45.860   -21 41 29.83  .55079 1.5229 155.6 21.9 72.9  96
2020 09 20 03  00 43 45.193   -21 41 43.64  .55075 1.5229 155.6 21.9 74.3  96
2020 09 20 04  00 43 44.524   -21 41 57.41  .55071 1.5229 155.6 21.9 75.6  96
2020 09 20 05  00 43 43.852   -21 42 11.13  .55067 1.5228 155.6 21.9 77.0  96
2020 09 20 06  00 43 43.178   -21 42 24.80  .55063 1.5228 155.6 21.9 78.4  96
2020 09 20 07  00 43 42.502   -21 42 38.43  .55059 1.5227 155.6 21.9 79.7  96
2020 09 20 08  00 43 41.823   -21 42 52.02  .55055 1.5227 155.6 21.9 81.1  96
2020 09 20 09  00 43 41.142   -21 43 05.56  .55051 1.5227 155.6 21.9 82.5  96
2020 09 20 10  00 43 40.459   -21 43 19.05  .55047 1.5226 155.6 21.9 84.0  97
2020 09 20 11  00 43 39.773   -21 43 32.50  .55044 1.5226 155.6 21.9 85.4  97
2020 09 20 12  00 43 39.085   -21 43 45.90  .55040 1.5225 155.6 21.9 86.8  97
2020 09 20 13  00 43 38.395   -21 43 59.25  .55036 1.5225 155.6 21.9 88.3  97
2020 09 20 14  00 43 37.702   -21 44 12.56  .55032 1.5225 155.6 21.9 89.7  97
2020 09 20 15  00 43 37.008   -21 44 25.82  .55029 1.5224 155.6 21.9 91.2  97
2020 09 20 16  00 43 36.310   -21 44 39.04  .55025 1.5224 155.6 21.9 92.7  97
2020 09 20 17  00 43 35.611   -21 44 52.21  .55021 1.5224 155.6 21.9 94.2  97
2020 09 20 18  00 43 34.910   -21 45 05.33  .55018 1.5223 155.6 21.9 95.7  97
2020 09 20 19  00 43 34.206   -21 45 18.41  .55014 1.5223 155.6 21.9 97.2  97
2020 09 20 20  00 43 33.500   -21 45 31.44  .55010 1.5222 155.6 21.9 98.7  97
2020 09 20 21  00 43 32.791   -21 45 44.42  .55007 1.5222 155.7 21.9  100  97
2020 09 20 22  00 43 32.081   -21 45 57.36  .55003 1.5222 155.7 21.9  102  97
2020 09 20 23  00 43 31.368   -21 46 10.25  .55000 1.5221 155.7 21.9  103  97
2020 09 21 00  00 43 30.653   -21 46 23.10  .54996 1.5221 155.7 21.9  105  97
2020 09 21 01  00 43 29.936   -21 46 35.89  .54993 1.5220 155.7 21.9  107  97
2020 09 21 02  00 43 29.217   -21 46 48.64  .54989 1.5220 155.7 21.9  108  97
2020 09 21 03  00 43 28.495   -21 47 01.34  .54986 1.5220 155.7 21.9  110  97